Hourly Data Report for September 09, 2001

SHERBROOKE A
QUEBEC

45°26'00.000" N
71°41'00.000" W
241.40 m
7028124
71610
YSC

Download Data

Hourly Data (September 2001)
Hourly Data Report for September 9, 2001
TIME
LST
Temp Definition
°C
Dew Point Definition
°C
Rel Hum Definition
%
Precip. Amount Definition
mm

Wind Dir Definition
10's deg

Wind Spd Definition
km/h
Visibility Definition
km
Stn Press Definition
kPa
Hmdx Definition


Wind Chill Definition


Weather Definition


00:00 16.8 16.1 96     0 3.1 98.88      
01:00 16.2 15.9 98   5 4 1.4 98.90      
02:00 15.2 15.0 99   7 4 0.5 98.92      
03:00 15.3 15.0 98   9 6 1.3 98.96      
04:00 14.8 14.4 97   10 6 1.6 99.00      
05:00 15.4 15.1 98   10 4 3.1 99.04      
06:00 15.4 15.0 97   1 6 1.4 99.11      
07:00 18.7 17.7 94     0 8.0 99.14     Fog
08:00 22.0 19.0 83     0 6.4 99.16 29    
09:00 25.2 19.2 69   25 4 9.7 99.16 32   Haze
10:00 26.8 19.1 63   21 11 12.9 99.18 34   Clear
11:00 27.6 18.9 59   25 11 16.1 99.14 34   Clear
12:00 28.7 19.2 56   23 6 19.3 99.11 36   Clear
13:00 29.4 19.5 55   21 11 16.1 99.07 37   Clear
14:00 30.1 19.8 54   23 6 16.1 99.03 38   Clear
15:00 30.0 19.9 55   26 9 19.3 99.00 37   Clear
16:00 29.5 19.5 55   25 7 19.3 98.97 37   Clear
17:00 29.1 20.9 61     0 9.7 98.94 37    
18:00 23.8 21.3 86     0 6.4 98.96 32    
19:00 20.3 19.1 93     0 4.8 99.00 27    
20:00 19.5 18.6 95   11 7 3.5 99.03      
21:00 18.6 17.7 95   9 6 4.8 99.03      
22:00 17.3 16.5 95   9 6 3.7 99.02      
23:00 15.3 14.6 96     0 2.6 98.99      

Notes on Data Quality.

Legend

  • E = Estimated
  • M = Missing
  • NA = Not Available*
  • [empty] = Indicates an unobserved value
Date modified: